Year,Month,Day,Hour,Minute,Value (Times are PST for temperature in C)
2024,04,16,00,00,5.20
2024,04,16,00,01,5.20
2024,04,16,00,02,5.10
2024,04,16,00,03,5.10
2024,04,16,00,04,5.10
2024,04,16,00,05,5.00
2024,04,16,00,06,5.00
2024,04,16,00,07,4.90
2024,04,16,00,08,4.90
2024,04,16,00,09,4.90
2024,04,16,00,10,4.90
2024,04,16,00,11,4.90
2024,04,16,00,12,4.80
2024,04,16,00,13,4.80
2024,04,16,00,14,4.80
2024,04,16,00,15,4.80
2024,04,16,00,16,4.80
2024,04,16,00,17,4.80
2024,04,16,00,18,4.80
2024,04,16,00,19,4.80
2024,04,16,00,20,4.80
2024,04,16,00,21,4.70
2024,04,16,00,22,4.60
2024,04,16,00,23,4.60
2024,04,16,00,24,4.60
2024,04,16,00,25,4.60
2024,04,16,00,26,4.60
2024,04,16,00,27,4.60
2024,04,16,00,28,4.60
2024,04,16,00,29,4.50
2024,04,16,00,30,4.50
2024,04,16,00,31,4.60
2024,04,16,00,32,4.50
2024,04,16,00,33,4.50
2024,04,16,00,34,4.40
2024,04,16,00,35,4.40
2024,04,16,00,36,4.30
2024,04,16,00,37,4.20
2024,04,16,00,38,4.20
2024,04,16,00,39,4.20
2024,04,16,00,40,4.20
2024,04,16,00,41,4.20
2024,04,16,00,42,4.20
2024,04,16,00,43,4.20
2024,04,16,00,44,4.20
2024,04,16,00,45,4.30
2024,04,16,00,46,4.30
2024,04,16,00,47,4.30
2024,04,16,00,48,4.30
2024,04,16,00,49,4.30
2024,04,16,00,50,4.30
2024,04,16,00,51,4.30
2024,04,16,00,52,4.30
2024,04,16,00,53,4.30
2024,04,16,00,54,4.20
2024,04,16,00,55,4.20
2024,04,16,00,56,4.20
2024,04,16,00,57,4.20
2024,04,16,00,58,4.20
2024,04,16,00,59,4.10
2024,04,16,01,00,4.10
2024,04,16,01,01,4.10
2024,04,16,01,02,4.00
2024,04,16,01,03,4.00
2024,04,16,01,04,3.90
2024,04,16,01,05,3.90
2024,04,16,01,06,3.90
2024,04,16,01,07,4.00
2024,04,16,01,08,4.00
2024,04,16,01,09,4.00
2024,04,16,01,10,4.00
2024,04,16,01,11,4.00
2024,04,16,01,12,4.00
2024,04,16,01,13,4.10
2024,04,16,01,14,4.10
2024,04,16,01,15,4.30
2024,04,16,01,16,4.30
2024,04,16,01,17,4.30
2024,04,16,01,18,4.40
2024,04,16,01,19,4.40
2024,04,16,01,20,4.40
2024,04,16,01,21,4.40
2024,04,16,01,22,4.50
2024,04,16,01,23,4.50
2024,04,16,01,24,4.60
2024,04,16,01,25,4.60
2024,04,16,01,26,4.60
2024,04,16,01,27,4.60
2024,04,16,01,28,4.50
2024,04,16,01,29,4.50
2024,04,16,01,30,4.50
2024,04,16,01,31,4.40
2024,04,16,01,32,4.40
2024,04,16,01,33,4.30
2024,04,16,01,34,4.30
2024,04,16,01,35,4.30
2024,04,16,01,36,4.30
2024,04,16,01,37,4.20
2024,04,16,01,38,4.20
2024,04,16,01,39,4.30
2024,04,16,01,40,4.30
2024,04,16,01,41,4.30
2024,04,16,01,42,4.30
2024,04,16,01,43,4.30
2024,04,16,01,44,4.30
2024,04,16,01,45,4.30
2024,04,16,01,46,4.20
2024,04,16,01,47,4.20
2024,04,16,01,48,4.20
2024,04,16,01,49,4.30
2024,04,16,01,50,4.30
2024,04,16,01,51,4.40
2024,04,16,01,52,4.40
2024,04,16,01,53,4.40
2024,04,16,01,54,4.40
2024,04,16,01,55,4.40
2024,04,16,01,56,4.30
2024,04,16,01,57,4.30
2024,04,16,01,58,4.30
2024,04,16,01,59,4.30
2024,04,16,02,00,4.30
2024,04,16,02,01,4.30
2024,04,16,02,02,4.30
2024,04,16,02,03,4.30
2024,04,16,02,04,4.30
2024,04,16,02,05,4.30
2024,04,16,02,06,4.30
2024,04,16,02,07,4.30
2024,04,16,02,08,4.20
2024,04,16,02,09,4.20
2024,04,16,02,10,4.10
2024,04,16,02,11,4.10
2024,04,16,02,12,4.00
2024,04,16,02,13,3.90
2024,04,16,02,14,3.90
2024,04,16,02,15,3.90
2024,04,16,02,16,3.90
2024,04,16,02,17,3.90
2024,04,16,02,18,3.90
2024,04,16,02,19,3.80
2024,04,16,02,20,3.80
2024,04,16,02,21,3.80
2024,04,16,02,22,3.80
2024,04,16,02,23,3.80
2024,04,16,02,24,3.80
2024,04,16,02,25,3.80
2024,04,16,02,26,3.80
2024,04,16,02,27,3.80
2024,04,16,02,28,3.70
2024,04,16,02,29,3.70
2024,04,16,02,30,3.70
2024,04,16,02,31,3.70
2024,04,16,02,32,3.60
2024,04,16,02,33,3.60
2024,04,16,02,34,3.60
2024,04,16,02,35,3.60
2024,04,16,02,36,3.60
2024,04,16,02,37,3.60
2024,04,16,02,38,3.50
2024,04,16,02,39,3.50
2024,04,16,02,40,3.50
2024,04,16,02,41,3.60
2024,04,16,02,42,3.60
2024,04,16,02,43,3.60
2024,04,16,02,44,3.60
2024,04,16,02,45,3.60
2024,04,16,02,46,3.60
2024,04,16,02,47,3.50
2024,04,16,02,48,3.50
2024,04,16,02,49,3.40
2024,04,16,02,50,3.40
2024,04,16,02,51,3.30
2024,04,16,02,52,3.20
2024,04,16,02,53,3.20
2024,04,16,02,54,3.10
2024,04,16,02,55,3.00
2024,04,16,02,56,2.90
2024,04,16,02,57,2.80
2024,04,16,02,58,2.80
2024,04,16,02,59,2.70
2024,04,16,03,00,2.60
2024,04,16,03,01,2.60
2024,04,16,03,02,2.60
2024,04,16,03,03,2.50
2024,04,16,03,04,2.50
2024,04,16,03,05,2.40
2024,04,16,03,06,2.40
2024,04,16,03,07,2.30
2024,04,16,03,08,2.20
2024,04,16,03,09,2.10
2024,04,16,03,10,2.10
2024,04,16,03,11,2.10
2024,04,16,03,12,2.10
2024,04,16,03,13,2.10
2024,04,16,03,14,2.10
2024,04,16,03,15,2.20
2024,04,16,03,16,2.20
2024,04,16,03,17,2.30
2024,04,16,03,18,2.30
2024,04,16,03,19,2.40
2024,04,16,03,20,2.40
2024,04,16,03,21,2.40
2024,04,16,03,22,2.40
2024,04,16,03,23,2.40
2024,04,16,03,24,2.40
2024,04,16,03,25,2.40
2024,04,16,03,26,2.40
2024,04,16,03,27,2.40
2024,04,16,03,28,2.30
2024,04,16,03,29,2.30
2024,04,16,03,30,2.20
2024,04,16,03,31,2.20
2024,04,16,03,32,2.10
2024,04,16,03,33,2.10
2024,04,16,03,34,2.10
2024,04,16,03,35,2.10
2024,04,16,03,36,2.10
2024,04,16,03,37,2.10
2024,04,16,03,38,2.00
2024,04,16,03,39,2.00
2024,04,16,03,40,2.10
2024,04,16,03,41,2.10
2024,04,16,03,42,2.10
2024,04,16,03,43,2.10
2024,04,16,03,44,2.10
2024,04,16,03,45,2.10
2024,04,16,03,46,2.10
2024,04,16,03,47,2.10
2024,04,16,03,48,2.10
2024,04,16,03,49,2.00
2024,04,16,03,50,2.00
2024,04,16,03,51,1.90
2024,04,16,03,52,1.90
2024,04,16,03,53,1.80
2024,04,16,03,54,1.80
2024,04,16,03,55,1.70
2024,04,16,03,56,1.70
2024,04,16,03,57,1.70
2024,04,16,03,58,1.70
2024,04,16,03,59,1.60
2024,04,16,04,00,1.60
2024,04,16,04,01,1.60
2024,04,16,04,02,1.50
2024,04,16,04,03,1.50
2024,04,16,04,04,1.40
2024,04,16,04,05,1.40
2024,04,16,04,06,1.40
2024,04,16,04,07,1.40
2024,04,16,04,08,1.40
2024,04,16,04,09,1.50
2024,04,16,04,10,1.60
2024,04,16,04,11,1.80
2024,04,16,04,12,1.90
2024,04,16,04,13,2.10
2024,04,16,04,14,2.50
2024,04,16,04,15,2.90
2024,04,16,04,16,3.00
2024,04,16,04,17,3.10
2024,04,16,04,18,3.20
2024,04,16,04,19,3.20
2024,04,16,04,20,3.10
2024,04,16,04,21,3.10
2024,04,16,04,22,3.10
2024,04,16,04,23,3.10
2024,04,16,04,24,3.10
2024,04,16,04,25,3.10
2024,04,16,04,26,3.10
2024,04,16,04,27,3.10
2024,04,16,04,28,3.10
2024,04,16,04,29,3.10
2024,04,16,04,30,3.10
2024,04,16,04,31,3.10
2024,04,16,04,32,3.00
2024,04,16,04,33,2.90
2024,04,16,04,34,2.90
2024,04,16,04,35,2.80
2024,04,16,04,36,2.80
2024,04,16,04,37,2.80
2024,04,16,04,38,2.80
2024,04,16,04,39,2.80
2024,04,16,04,40,2.70
2024,04,16,04,41,2.80
2024,04,16,04,42,2.90
2024,04,16,04,43,3.10
2024,04,16,04,44,3.30
2024,04,16,04,45,3.40
2024,04,16,04,46,3.50
2024,04,16,04,47,3.60
2024,04,16,04,48,3.70
2024,04,16,04,49,3.80
2024,04,16,04,50,3.90
2024,04,16,04,51,3.90
2024,04,16,04,52,4.00
2024,04,16,04,53,4.00
2024,04,16,04,54,4.10
2024,04,16,04,55,4.10
2024,04,16,04,56,4.20
2024,04,16,04,57,4.20
2024,04,16,04,58,4.20
2024,04,16,04,59,4.30
2024,04,16,05,00,4.30
2024,04,16,05,01,4.40
2024,04,16,05,02,4.50
2024,04,16,05,03,4.60
2024,04,16,05,04,4.60
2024,04,16,05,05,4.70
2024,04,16,05,06,4.70
2024,04,16,05,07,4.70
2024,04,16,05,08,4.70
2024,04,16,05,09,4.80
2024,04,16,05,10,4.80
2024,04,16,05,11,4.80
2024,04,16,05,12,4.80
2024,04,16,05,13,4.90
2024,04,16,05,14,4.90
2024,04,16,05,15,5.00
2024,04,16,05,16,5.00
2024,04,16,05,17,5.00
2024,04,16,05,18,5.00
2024,04,16,05,19,5.00
2024,04,16,05,20,5.00
2024,04,16,05,21,5.00
2024,04,16,05,22,5.00
2024,04,16,05,23,5.00
2024,04,16,05,24,5.00
2024,04,16,05,25,5.00
2024,04,16,05,26,5.00
2024,04,16,05,27,5.00
2024,04,16,05,28,4.90
2024,04,16,05,29,4.90
2024,04,16,05,30,5.00
2024,04,16,05,31,5.00
2024,04,16,05,32,4.90
2024,04,16,05,33,4.90
2024,04,16,05,34,4.90
2024,04,16,05,35,4.80
2024,04,16,05,36,4.80
2024,04,16,05,37,4.80
2024,04,16,05,38,4.70
2024,04,16,05,39,4.70
2024,04,16,05,40,4.60
2024,04,16,05,41,4.60
2024,04,16,05,42,4.60
2024,04,16,05,43,4.50
2024,04,16,05,44,4.50
2024,04,16,05,45,4.50
2024,04,16,05,46,4.60
2024,04,16,05,47,4.60
2024,04,16,05,48,4.70
2024,04,16,05,49,4.70
2024,04,16,05,50,4.70
2024,04,16,05,51,4.70
2024,04,16,05,52,4.70
2024,04,16,05,53,4.80
2024,04,16,05,54,4.80
2024,04,16,05,55,4.80
2024,04,16,05,56,4.80
2024,04,16,05,57,4.80
2024,04,16,05,58,4.80
2024,04,16,05,59,4.80
2024,04,16,06,00,4.80
2024,04,16,06,01,4.80
2024,04,16,06,02,4.80
2024,04,16,06,03,4.80
2024,04,16,06,04,4.80
2024,04,16,06,05,4.80
2024,04,16,06,06,4.80
2024,04,16,06,07,4.80
2024,04,16,06,08,4.80
2024,04,16,06,09,4.80
2024,04,16,06,10,4.70
2024,04,16,06,11,4.70
2024,04,16,06,12,4.80
2024,04,16,06,13,4.80
2024,04,16,06,14,4.90
2024,04,16,06,15,4.90
2024,04,16,06,16,4.80
2024,04,16,06,17,4.80
2024,04,16,06,18,4.80
2024,04,16,06,19,4.80
2024,04,16,06,20,4.80
2024,04,16,06,21,4.70
2024,04,16,06,22,4.70
2024,04,16,06,23,4.70
2024,04,16,06,24,4.80
2024,04,16,06,25,4.70
2024,04,16,06,26,4.70
2024,04,16,06,27,4.80
2024,04,16,06,28,4.80
2024,04,16,06,29,4.80
2024,04,16,06,30,4.80
2024,04,16,06,31,4.80
2024,04,16,06,32,4.70
2024,04,16,06,33,4.70
2024,04,16,06,34,4.70
2024,04,16,06,35,4.70
2024,04,16,06,36,4.70
2024,04,16,06,37,4.70
2024,04,16,06,38,4.70
2024,04,16,06,39,4.70
2024,04,16,06,40,4.70
2024,04,16,06,41,4.70
2024,04,16,06,42,4.70
2024,04,16,06,43,4.70
2024,04,16,06,44,4.70
2024,04,16,06,45,4.70
2024,04,16,06,46,4.70
2024,04,16,06,47,4.70
2024,04,16,06,48,4.60
2024,04,16,06,49,4.60
2024,04,16,06,50,4.60
2024,04,16,06,51,4.50
2024,04,16,06,52,4.50
2024,04,16,06,53,4.40
2024,04,16,06,54,4.40
2024,04,16,06,55,4.40
2024,04,16,06,56,4.40
2024,04,16,06,57,4.30
2024,04,16,06,58,4.30
2024,04,16,06,59,4.30
2024,04,16,07,00,4.40
2024,04,16,07,01,4.40
2024,04,16,07,02,4.40
2024,04,16,07,03,4.40
2024,04,16,07,04,4.40
2024,04,16,07,05,4.40
2024,04,16,07,06,4.40
2024,04,16,07,07,4.40
2024,04,16,07,08,4.40
2024,04,16,07,09,4.40
2024,04,16,07,10,4.50
2024,04,16,07,11,4.60
2024,04,16,07,12,4.60
2024,04,16,07,13,4.60
2024,04,16,07,14,4.60
2024,04,16,07,15,4.60
2024,04,16,07,16,4.60
2024,04,16,07,17,4.70
2024,04,16,07,18,4.70
2024,04,16,07,19,4.70
2024,04,16,07,20,4.80
2024,04,16,07,21,4.80
2024,04,16,07,22,4.80
2024,04,16,07,23,4.80
2024,04,16,07,24,4.90
2024,04,16,07,25,4.90
2024,04,16,07,26,4.90
2024,04,16,07,27,4.90
2024,04,16,07,28,4.90
2024,04,16,07,29,5.00
2024,04,16,07,30,5.00
2024,04,16,07,31,5.00
2024,04,16,07,32,5.10
2024,04,16,07,33,5.10
2024,04,16,07,34,5.10
2024,04,16,07,35,5.20
2024,04,16,07,36,5.20
2024,04,16,07,37,5.20
2024,04,16,07,38,5.30
2024,04,16,07,39,5.30
2024,04,16,07,40,5.30
2024,04,16,07,41,5.30
2024,04,16,07,42,5.30
2024,04,16,07,43,5.30
2024,04,16,07,44,5.40
2024,04,16,07,45,5.40
2024,04,16,07,46,5.40
2024,04,16,07,47,5.40
2024,04,16,07,48,5.50
2024,04,16,07,49,5.60
2024,04,16,07,50,5.60
2024,04,16,07,51,5.60
2024,04,16,07,52,5.70
2024,04,16,07,53,5.70
2024,04,16,07,54,5.70
2024,04,16,07,55,5.70
2024,04,16,07,56,5.70
2024,04,16,07,57,5.70
2024,04,16,07,58,5.70
2024,04,16,07,59,5.70
2024,04,16,08,00,5.80
2024,04,16,08,01,5.80
2024,04,16,08,02,5.80
2024,04,16,08,03,5.80
2024,04,16,08,04,5.80
2024,04,16,08,05,5.80
2024,04,16,08,06,5.80
2024,04,16,08,07,5.80
2024,04,16,08,08,5.80
2024,04,16,08,09,5.80
2024,04,16,08,10,5.80
2024,04,16,08,11,5.80
2024,04,16,08,12,5.80
2024,04,16,08,13,5.80
2024,04,16,08,14,5.80
2024,04,16,08,15,5.80
2024,04,16,08,16,5.80
2024,04,16,08,17,5.80
2024,04,16,08,18,5.80
2024,04,16,08,19,5.80
2024,04,16,08,20,5.80
2024,04,16,08,21,5.80
2024,04,16,08,22,5.90
2024,04,16,08,23,5.90
2024,04,16,08,24,5.90
2024,04,16,08,25,5.90
2024,04,16,08,26,5.90
2024,04,16,08,27,6.00
2024,04,16,08,28,6.00
2024,04,16,08,29,6.00
2024,04,16,08,30,6.00
2024,04,16,08,31,6.10
2024,04,16,08,32,6.10
2024,04,16,08,33,6.10
2024,04,16,08,34,6.10
2024,04,16,08,35,6.20
2024,04,16,08,36,6.20
2024,04,16,08,37,6.20
2024,04,16,08,38,6.20
2024,04,16,08,39,6.10
2024,04,16,08,40,6.20
2024,04,16,08,41,6.10
2024,04,16,08,42,6.20
2024,04,16,08,43,6.20
2024,04,16,08,44,6.20
2024,04,16,08,45,6.20
2024,04,16,08,46,6.20
2024,04,16,08,47,6.20
2024,04,16,08,48,6.20
2024,04,16,08,49,6.20
2024,04,16,08,50,6.20
2024,04,16,08,51,6.20
2024,04,16,08,52,6.20
2024,04,16,08,53,6.20
2024,04,16,08,54,6.20
2024,04,16,08,55,6.30
2024,04,16,08,56,6.30
2024,04,16,08,57,6.40
2024,04,16,08,58,6.40
2024,04,16,08,59,6.40
2024,04,16,09,00,6.40
2024,04,16,09,01,6.40
2024,04,16,09,02,6.40
2024,04,16,09,03,6.40
2024,04,16,09,04,6.50
2024,04,16,09,05,6.50
2024,04,16,09,06,6.50
2024,04,16,09,07,6.60
2024,04,16,09,08,6.60
2024,04,16,09,09,6.60
2024,04,16,09,10,6.60
2024,04,16,09,11,6.60
2024,04,16,09,12,6.70
2024,04,16,09,13,6.70
2024,04,16,09,14,6.80
2024,04,16,09,15,6.80
2024,04,16,09,16,6.90
2024,04,16,09,17,6.90
2024,04,16,09,18,6.90
2024,04,16,09,19,7.00
2024,04,16,09,20,7.00
2024,04,16,09,21,7.00
2024,04,16,09,22,7.10
2024,04,16,09,23,7.00
2024,04,16,09,24,7.00
2024,04,16,09,25,6.90
2024,04,16,09,26,6.90
2024,04,16,09,27,6.90
2024,04,16,09,28,7.00
2024,04,16,09,29,7.10
2024,04,16,09,30,7.10
2024,04,16,09,31,7.20
2024,04,16,09,32,7.20
2024,04,16,09,33,7.20
2024,04,16,09,34,7.20
2024,04,16,09,35,7.20
2024,04,16,09,36,7.30
2024,04,16,09,37,7.30
2024,04,16,09,38,7.40
2024,04,16,09,39,7.40
2024,04,16,09,40,7.40
2024,04,16,09,41,7.40
2024,04,16,09,42,7.40
2024,04,16,09,43,7.40
2024,04,16,09,44,7.40
2024,04,16,09,45,7.40
2024,04,16,09,46,7.50
2024,04,16,09,47,7.50
2024,04,16,09,48,7.40
2024,04,16,09,49,7.40
2024,04,16,09,50,7.30
2024,04,16,09,51,7.30
2024,04,16,09,52,7.40
2024,04,16,09,53,7.50
2024,04,16,09,54,7.60
2024,04,16,09,55,7.60
2024,04,16,09,56,7.70
2024,04,16,09,57,7.70
2024,04,16,09,58,7.80
2024,04,16,09,59,7.90
2024,04,16,10,00,7.90
2024,04,16,10,01,7.90
2024,04,16,10,02,7.90
2024,04,16,10,03,7.90
2024,04,16,10,04,7.80
2024,04,16,10,05,7.80
2024,04,16,10,06,7.80
2024,04,16,10,07,7.80
2024,04,16,10,08,7.70
2024,04,16,10,09,7.70
2024,04,16,10,10,7.80
2024,04,16,10,11,7.80
2024,04,16,10,12,7.70
2024,04,16,10,13,7.70
2024,04,16,10,14,7.60
2024,04,16,10,15,7.60
2024,04,16,10,16,7.60
2024,04,16,10,17,7.60
2024,04,16,10,18,7.70
2024,04,16,10,19,7.80
2024,04,16,10,20,7.80
2024,04,16,10,21,7.80
2024,04,16,10,22,7.90
2024,04,16,10,23,7.90
2024,04,16,10,24,7.90
2024,04,16,10,25,7.90
2024,04,16,10,26,7.90
2024,04,16,10,27,8.00
2024,04,16,10,28,8.00
2024,04,16,10,29,8.00
2024,04,16,10,30,7.90
2024,04,16,10,31,7.90
2024,04,16,10,32,7.90
2024,04,16,10,33,8.00
2024,04,16,10,34,8.10
2024,04,16,10,35,8.10
2024,04,16,10,36,8.20
2024,04,16,10,37,8.20
2024,04,16,10,38,8.20
2024,04,16,10,39,8.20
2024,04,16,10,40,8.30
2024,04,16,10,41,8.40
2024,04,16,10,42,8.40
2024,04,16,10,43,8.40
2024,04,16,10,44,8.30
2024,04,16,10,45,8.30
2024,04,16,10,46,8.30
2024,04,16,10,47,8.40
2024,04,16,10,48,8.40
2024,04,16,10,49,8.50
2024,04,16,10,50,8.60
2024,04,16,10,51,8.60
2024,04,16,10,52,8.60
2024,04,16,10,53,8.60
2024,04,16,10,54,8.70
2024,04,16,10,55,8.70
2024,04,16,10,56,8.70
2024,04,16,10,57,8.70
2024,04,16,10,58,8.60
2024,04,16,10,59,8.60
2024,04,16,11,00,8.60
2024,04,16,11,01,8.70
2024,04,16,11,02,8.70
2024,04,16,11,03,8.70
2024,04,16,11,04,8.60
2024,04,16,11,05,8.70
2024,04,16,11,06,8.70
2024,04,16,11,07,8.80
2024,04,16,11,08,8.80
2024,04,16,11,09,8.80
2024,04,16,11,10,8.90
2024,04,16,11,11,8.90
2024,04,16,11,12,8.80
2024,04,16,11,13,8.80
2024,04,16,11,14,8.80
2024,04,16,11,15,8.80
2024,04,16,11,16,8.80
2024,04,16,11,17,8.80
2024,04,16,11,18,8.80
2024,04,16,11,19,8.90
2024,04,16,11,20,8.90
2024,04,16,11,21,8.90
2024,04,16,11,22,8.90
2024,04,16,11,23,9.00
2024,04,16,11,24,8.90
2024,04,16,11,25,8.90
2024,04,16,11,26,8.80
2024,04,16,11,27,8.70
2024,04,16,11,28,8.70
2024,04,16,11,29,8.70
2024,04,16,11,30,8.70
2024,04,16,11,31,8.80
2024,04,16,11,32,8.80
2024,04,16,11,33,8.90
2024,04,16,11,34,8.90
2024,04,16,11,35,8.90
2024,04,16,11,36,8.90
2024,04,16,11,37,9.00
2024,04,16,11,38,9.10
2024,04,16,11,39,9.00
2024,04,16,11,40,9.10
2024,04,16,11,41,9.00
2024,04,16,11,42,9.10
2024,04,16,11,43,9.10
2024,04,16,11,44,9.10
2024,04,16,11,45,9.20
2024,04,16,11,46,9.30
2024,04,16,11,47,9.40
2024,04,16,11,48,9.40
2024,04,16,11,49,9.40
2024,04,16,11,50,9.50
2024,04,16,11,51,9.50
2024,04,16,11,52,9.60
2024,04,16,11,53,9.60
2024,04,16,11,54,9.60
2024,04,16,11,55,9.50
2024,04,16,11,56,9.50
2024,04,16,11,57,9.50
2024,04,16,11,58,9.60
2024,04,16,11,59,9.60
2024,04,16,12,00,9.70
2024,04,16,12,01,9.60
2024,04,16,12,02,9.60
2024,04,16,12,03,9.60
2024,04,16,12,04,9.70
2024,04,16,12,05,9.70
2024,04,16,12,06,9.60
2024,04,16,12,07,9.60
2024,04,16,12,08,9.60
2024,04,16,12,09,9.60
2024,04,16,12,10,9.70
2024,04,16,12,11,9.80
2024,04,16,12,12,9.80
2024,04,16,12,13,9.80
2024,04,16,12,14,9.80
2024,04,16,12,15,9.80
2024,04,16,12,16,9.80
2024,04,16,12,17,9.90
2024,04,16,12,18,10.00
2024,04,16,12,19,10.00
2024,04,16,12,20,9.90
2024,04,16,12,21,9.90
2024,04,16,12,22,9.90
2024,04,16,12,23,10.00
2024,04,16,12,24,10.10
2024,04,16,12,25,10.10
2024,04,16,12,26,10.10
2024,04,16,12,27,10.10
2024,04,16,12,28,10.10
2024,04,16,12,29,10.10
2024,04,16,12,30,10.10
2024,04,16,12,31,10.10
2024,04,16,12,32,10.00
2024,04,16,12,33,10.00
2024,04,16,12,34,9.90
2024,04,16,12,35,9.90
2024,04,16,12,36,9.90
2024,04,16,12,37,10.00
2024,04,16,12,38,10.10
2024,04,16,12,39,10.10
2024,04,16,12,40,10.20
2024,04,16,12,41,10.30
2024,04,16,12,42,10.30
2024,04,16,12,43,10.30
2024,04,16,12,44,10.20
2024,04,16,12,45,10.30
2024,04,16,12,46,10.40
2024,04,16,12,47,10.40
2024,04,16,12,48,10.30
2024,04,16,12,49,10.30
2024,04,16,12,50,10.20
2024,04,16,12,51,10.10
2024,04,16,12,52,10.20
2024,04,16,12,53,10.30
2024,04,16,12,54,10.30
2024,04,16,12,55,10.30
2024,04,16,12,56,10.30
2024,04,16,12,57,10.30
2024,04,16,12,58,10.30
2024,04,16,12,59,10.30
2024,04,16,13,00,10.30
2024,04,16,13,01,10.40
2024,04,16,13,02,10.50
2024,04,16,13,03,10.60
2024,04,16,13,04,10.80
2024,04,16,13,05,11.00
2024,04,16,13,06,11.20
2024,04,16,13,07,11.20
2024,04,16,13,08,11.20
2024,04,16,13,09,11.10
2024,04,16,13,10,11.00
2024,04,16,13,11,10.90
2024,04,16,13,12,10.90
2024,04,16,13,13,10.90
2024,04,16,13,14,10.90
2024,04,16,13,15,11.00
2024,04,16,13,16,11.00
2024,04,16,13,17,11.00
2024,04,16,13,18,11.00
2024,04,16,13,19,11.10
2024,04,16,13,20,11.20
2024,04,16,13,21,11.20
2024,04,16,13,22,11.20
2024,04,16,13,23,11.10
2024,04,16,13,24,11.10
2024,04,16,13,25,11.20
2024,04,16,13,26,11.20
2024,04,16,13,27,11.20
2024,04,16,13,28,11.10
2024,04,16,13,29,11.00
2024,04,16,13,30,10.90
2024,04,16,13,31,10.90
2024,04,16,13,32,11.00
2024,04,16,13,33,11.00
2024,04,16,13,34,11.10
2024,04,16,13,35,11.10
2024,04,16,13,36,11.20
2024,04,16,13,37,11.20
2024,04,16,13,38,11.20
2024,04,16,13,39,11.20
2024,04,16,13,40,11.30
2024,04,16,13,41,11.40
2024,04,16,13,42,11.40
2024,04,16,13,43,11.50
2024,04,16,13,44,11.60
2024,04,16,13,45,11.60
2024,04,16,13,46,11.60
2024,04,16,13,47,11.40
2024,04,16,13,48,11.30
2024,04,16,13,49,11.30
2024,04,16,13,50,11.30
2024,04,16,13,51,11.30
2024,04,16,13,52,11.30
2024,04,16,13,53,11.40
2024,04,16,13,54,11.40
2024,04,16,13,55,11.40
2024,04,16,13,56,11.40
2024,04,16,13,57,11.40
2024,04,16,13,58,11.40
2024,04,16,13,59,11.30
2024,04,16,14,00,11.30
2024,04,16,14,01,11.30
2024,04,16,14,02,11.30
2024,04,16,14,03,11.30
2024,04,16,14,04,11.30
2024,04,16,14,05,11.30
2024,04,16,14,06,11.40
2024,04,16,14,07,11.50
2024,04,16,14,08,11.60
2024,04,16,14,09,11.60
2024,04,16,14,10,11.60
2024,04,16,14,11,11.60
2024,04,16,14,12,11.60
2024,04,16,14,13,11.60
2024,04,16,14,14,11.70
2024,04,16,14,15,11.70
2024,04,16,14,16,11.70
2024,04,16,14,17,11.70
2024,04,16,14,18,11.70
2024,04,16,14,19,11.70
2024,04,16,14,20,11.80
2024,04,16,14,21,11.90
2024,04,16,14,22,12.00
2024,04,16,14,23,12.00
2024,04,16,14,24,12.10
2024,04,16,14,25,12.10
2024,04,16,14,26,12.10
2024,04,16,14,27,12.10
2024,04,16,14,28,12.10
2024,04,16,14,29,12.10
2024,04,16,14,30,12.10
2024,04,16,14,31,12.00
2024,04,16,14,32,12.10
2024,04,16,14,33,12.10
2024,04,16,14,34,12.10
2024,04,16,14,35,12.10
2024,04,16,14,36,12.20
2024,04,16,14,37,12.20
2024,04,16,14,38,12.20
2024,04,16,14,39,12.10
2024,04,16,14,40,12.10
2024,04,16,14,41,12.00
2024,04,16,14,42,12.10
2024,04,16,14,43,12.20
2024,04,16,14,44,12.20
2024,04,16,14,45,12.30
2024,04,16,14,46,12.30
2024,04,16,14,47,12.30
2024,04,16,14,48,12.20
2024,04,16,14,49,12.20
2024,04,16,14,50,12.10
2024,04,16,14,51,12.10
2024,04,16,14,52,12.00
2024,04,16,14,53,11.80
2024,04,16,14,54,11.70
2024,04,16,14,55,11.70
2024,04,16,14,56,11.70
2024,04,16,14,57,11.80
2024,04,16,14,58,11.80
2024,04,16,14,59,11.90
2024,04,16,15,00,12.00
2024,04,16,15,01,12.10
2024,04,16,15,02,12.20
2024,04,16,15,03,12.20
2024,04,16,15,04,12.10
2024,04,16,15,05,12.10
2024,04,16,15,06,12.10
2024,04,16,15,07,12.10
2024,04,16,15,08,12.10
2024,04,16,15,09,12.20
2024,04,16,15,10,12.30
2024,04,16,15,11,12.40
2024,04,16,15,12,12.50
2024,04,16,15,13,12.50
2024,04,16,15,14,12.60
2024,04,16,15,15,12.60
2024,04,16,15,16,12.60
2024,04,16,15,17,12.70
2024,04,16,15,18,12.80
2024,04,16,15,19,12.80
2024,04,16,15,20,12.80
2024,04,16,15,21,12.70
2024,04,16,15,22,12.70
2024,04,16,15,23,12.60
2024,04,16,15,24,12.60
2024,04,16,15,25,12.60
2024,04,16,15,26,12.50
2024,04,16,15,27,12.40
2024,04,16,15,28,12.40
2024,04,16,15,29,12.40
2024,04,16,15,30,12.40
2024,04,16,15,31,12.50
2024,04,16,15,32,12.50
2024,04,16,15,33,12.50
2024,04,16,15,34,12.50
2024,04,16,15,35,12.60
2024,04,16,15,36,12.60
2024,04,16,15,37,12.70
2024,04,16,15,38,12.70
2024,04,16,15,39,12.70
2024,04,16,15,40,12.70
2024,04,16,15,41,12.70
2024,04,16,15,42,12.60
2024,04,16,15,43,12.60
2024,04,16,15,44,12.60
2024,04,16,15,45,12.60
2024,04,16,15,46,12.70
2024,04,16,15,47,12.80
2024,04,16,15,48,12.80
2024,04,16,15,49,12.90
2024,04,16,15,50,12.90
2024,04,16,15,51,12.90
2024,04,16,15,52,12.80
2024,04,16,15,53,12.90
2024,04,16,15,54,12.90
2024,04,16,15,55,12.90
2024,04,16,15,56,12.90
2024,04,16,15,57,12.90
2024,04,16,15,58,13.00
2024,04,16,15,59,13.10
2024,04,16,16,00,13.20
2024,04,16,16,01,13.20
2024,04,16,16,02,13.20
2024,04,16,16,03,13.20
2024,04,16,16,04,13.20
2024,04,16,16,05,13.20
2024,04,16,16,06,13.20
2024,04,16,16,07,13.20
2024,04,16,16,08,13.30
2024,04,16,16,09,13.30
2024,04,16,16,10,13.30
2024,04,16,16,11,13.20
2024,04,16,16,12,13.20
2024,04,16,16,13,13.20
2024,04,16,16,14,13.20
2024,04,16,16,15,13.20
2024,04,16,16,16,13.20
2024,04,16,16,17,13.20
2024,04,16,16,18,13.20
2024,04,16,16,19,13.20
2024,04,16,16,20,13.20
2024,04,16,16,21,13.20
2024,04,16,16,22,13.20
2024,04,16,16,23,13.20
2024,04,16,16,24,13.10
2024,04,16,16,25,13.10
2024,04,16,16,26,13.10
2024,04,16,16,27,13.10
2024,04,16,16,28,13.10
2024,04,16,16,29,13.20
2024,04,16,16,30,13.20
2024,04,16,16,31,13.20
2024,04,16,16,32,13.20
2024,04,16,16,33,13.20
2024,04,16,16,34,13.30
2024,04,16,16,35,13.30
2024,04,16,16,36,13.30
2024,04,16,16,37,13.40
2024,04,16,16,38,13.40
2024,04,16,16,39,13.40
2024,04,16,16,40,13.50
2024,04,16,16,41,13.50
2024,04,16,16,42,13.50
2024,04,16,16,43,13.50
2024,04,16,16,44,13.60
2024,04,16,16,45,13.60
2024,04,16,16,46,13.60
2024,04,16,16,47,13.60
2024,04,16,16,48,13.50
2024,04,16,16,49,13.50
2024,04,16,16,50,13.50
2024,04,16,16,51,13.50
2024,04,16,16,52,13.40
2024,04,16,16,53,13.40
2024,04,16,16,54,13.40
2024,04,16,16,55,13.40
2024,04,16,16,56,13.30
2024,04,16,16,57,13.30
2024,04,16,16,58,13.30
2024,04,16,16,59,13.40
2024,04,16,17,00,13.40
2024,04,16,17,01,13.30
2024,04,16,17,02,13.30
2024,04,16,17,03,13.20
2024,04,16,17,04,13.20
2024,04,16,17,05,13.20
2024,04,16,17,06,13.30
2024,04,16,17,07,13.30
2024,04,16,17,08,13.30
2024,04,16,17,09,13.30
2024,04,16,17,10,13.40
2024,04,16,17,11,13.40
2024,04,16,17,12,13.50
2024,04,16,17,13,13.50
2024,04,16,17,14,13.50
2024,04,16,17,15,13.50
2024,04,16,17,16,13.60
2024,04,16,17,17,13.60
2024,04,16,17,18,13.60
2024,04,16,17,19,13.50
2024,04,16,17,20,13.40
2024,04,16,17,21,13.40
2024,04,16,17,22,13.40
2024,04,16,17,23,13.30
2024,04,16,17,24,13.30
2024,04,16,17,25,13.30
2024,04,16,17,26,13.30
2024,04,16,17,27,13.30
2024,04,16,17,28,13.30
2024,04,16,17,29,13.30
2024,04,16,17,30,13.40
2024,04,16,17,31,13.40
2024,04,16,17,32,13.40
2024,04,16,17,33,13.40
2024,04,16,17,34,13.40
2024,04,16,17,35,13.30
2024,04,16,17,36,13.30
2024,04,16,17,37,13.30
2024,04,16,17,38,13.40
2024,04,16,17,39,13.50
2024,04,16,17,40,13.60
2024,04,16,17,41,13.70
2024,04,16,17,42,13.60
2024,04,16,17,43,13.60
2024,04,16,17,44,13.60
2024,04,16,17,45,13.60
2024,04,16,17,46,13.60
2024,04,16,17,47,13.60
2024,04,16,17,48,13.50
2024,04,16,17,49,13.40
2024,04,16,17,50,13.40
2024,04,16,17,51,13.40